GW2092 Weather Reports


time (UTC)temp
F
wind
direction
speed
knots
gust
knots
rain 1hr
in
rain 24hr
in
rain mn
in
humidity
%
barometer
mb
20260902191605 101 147 0.9 6.1 0.00 0.00 0.00 38 1016.4
20260902190056 102 218 0.0 3.5 0.00 0.00 0.00 38 1016.5
20260902184547 101 0 0.0 3.5 0.00 0.00 0.00 39 1016.7
20260902183113 100 0 1.7 6.1 0.00 0.00 0.00 39 1017.0
20260902181555 101 216 0.0 3.5 0.00 0.00 0.00 39 1017.3
20260902180049 100 0 0.0 3.5 0.00 0.00 0.00 41 1017.5
20260902174556 100 113 0.9 5.2 0.00 0.00 0.00 41 1017.7
20260902173056 99 251 0.0 2.6 0.00 0.00 0.00 45 1017.8
20260902171558 98 0 0.9 6.1 0.00 0.00 0.00 44 1018.0
20260902170057 97 266 0.0 6.1 0.00 0.00 0.00 46 1018.3
20260902164559 96 148 0.9 5.2 0.00 0.00 0.00 48 1018.3
20260902163051 95 145 0.0 6.1 0.00 0.00 0.00 49 1018.5
20260902161547 94 150 0.9 9.6 0.00 0.00 0.00 50 1018.5
20260902160055 94 188 1.7 7.8 0.00 0.00 0.00 51 1018.7
20260902154606 93 0 0.0 5.2 0.00 0.00 0.00 54 1018.7
20260902153100 92 189 0.9 5.2 0.00 0.00 0.00 55 1018.8
20260902151546 92 205 0.9 3.5 0.00 0.00 0.00 55 1018.8
20260902150044 91 152 0.0 1.7 0.00 0.00 0.00 58 1019.1
20260902144550 89 254 0.0 2.6 0.00 0.00 0.00 59 1019.0
20260902143044 86 203 0.0 4.3 0.00 0.00 0.00 63 1019.1
20260902141554 85 213 0.0 2.6 0.00 0.00 0.00 64 1018.9
20260902140053 84 117 0.0 1.7 0.00 0.00 0.00 67 1019.1
20260902134550 81 0 0.0 0.9 0.00 0.00 0.00 70 1019.1
20260902133055 80 0 0.0 0.9 0.00 0.00 0.00 72 1018.9
20260902131553 80 215 0.0 0.9 0.00 0.00 0.00 72 1018.9
20260902130051 80 165 0.0 0.9 0.00 0.00 0.00 72 1018.8
20260902124544 79 0 0.0 0.9 0.00 0.00 0.00 73 1018.6
20260902123100 77 0 0.0 1.7 0.00 0.00 0.00 77 1018.6
20260902121550 74 0 0.0 0.9 0.00 0.00 0.00 80 1018.4
20260902120053 73 0 0.0 0.0 0.00 0.00 0.00 81 1018.3
20260902114616 74 0 0.0 0.0 0.00 0.00 0.00 80 1018.1
20260902113055 74 0 0.0 0.0 0.00 0.00 0.00 79 1018.0
20260902111600 74 0 0.0 0.0 0.00 0.00 0.00 80 1017.8
20260902110055 74 0 0.0 0.0 0.00 0.00 0.00 78 1017.8
20260902104552 75 0 0.0 0.0 0.00 0.00 0.00 77 1017.7
20260902103102 75 0 0.0 0.0 0.00 0.00 0.00 77 1017.6
20260902101544 76 0 0.0 0.0 0.00 0.00 0.00 76 1017.4
20260902100105 76 0 0.0 0.0 0.00 0.00 0.00 75 1017.5
20260902094601 77 0 0.0 0.0 0.00 0.00 0.00 73 1017.4
20260902093106 78 0 0.0 0.0 0.00 0.00 0.00 72 1017.2
20260902091544 78 0 0.0 0.0 0.00 0.00 0.00 71 1017.3
20260902090050 78 0 0.0 0.9 0.00 0.00 0.00 71 1017.3
20260902084547 79 0 0.0 0.9 0.00 0.00 0.00 71 1017.4
20260902083043 79 0 0.0 0.9 0.00 0.00 0.00 70 1017.4
20260902081553 79 0 0.0 0.9 0.00 0.00 0.00 69 1017.3
20260902080050 80 0 0.0 0.9 0.00 0.00 0.00 69 1017.4
20260902074545 80 0 0.0 2.6 0.00 0.00 0.00 68 1017.3
20260902073048 80 229 0.0 2.6 0.00 0.00 0.00 68 1017.3
20260902071550 80 0 0.0 1.7 0.00 0.00 0.00 67 1017.3
20260902070047 80 0 0.0 1.7 0.00 0.00 0.00 67 1017.4
20260902064545 80 0 0.0 1.7 0.00 0.00 0.00 66 1017.3
20260902063052 80 0 0.0 0.9 0.00 0.00 0.00 66 1017.3
20260902061559 80 158 0.0 0.9 0.00 0.00 0.00 66 1017.3
20260902060054 80 210 0.0 1.7 0.00 0.00 0.00 66 1017.2
20260902054553 81 0 0.0 0.9 0.00 0.00 0.00 65 1016.9
20260902053047 81 129 0.0 1.7 0.00 0.00 0.00 64 1017.0
20260902051544 81 155 0.0 1.7 0.00 0.00 0.00 63 1016.9
20260902050046 82 0 0.0 0.9 0.00 0.00 0.00 63 1016.9
20260902044550 82 0 0.0 1.7 0.00 0.00 0.00 62 1017.0
20260902043051 82 0 0.0 0.9 0.00 0.00 0.00 62 1017.0
20260902041607 82 0 0.0 0.0 0.00 0.00 0.00 61 1017.0
20260902040054 82 0 0.0 0.9 0.00 0.00 0.00 60 1017.1
20260902034550 82 0 0.0 0.9 0.00 0.00 0.00 59 1017.0
20260902033044 83 0 0.0 0.9 0.00 0.00 0.00 59 1017.0
20260902031614 83 0 0.0 0.9 0.00 0.00 0.00 59 1016.8
20260902030056 82 0 0.0 0.9 0.00 0.00 0.00 59 1016.5
20260902024553 82 0 0.0 0.0 0.00 0.00 0.00 60 1016.3
20260902023102 82 0 0.0 0.0 0.00 0.00 0.00 61 1016.0
20260902021549 81 0 0.0 0.0 0.00 0.00 0.00 61 1015.8
20260902020047 82 0 0.0 0.0 0.00 0.00 0.00 60 1015.3
20260902014544 83 0 0.0 0.0 0.00 0.00 0.00 58 1015.1
20260902013043 84 0 0.0 0.0 0.00 0.00 0.00 56 1015.1
20260902011550 86 0 0.0 0.0 0.00 0.00 0.00 54 1015.1
20260902010045 87 0 0.0 0.0 0.00 0.00 0.00 52 1015.2
20260902004555 90 0 0.0 0.0 0.00 0.00 0.00 49 1015.1
20260902003052 91 0 0.0 0.9 0.00 0.00 0.00 47 1015.3
20260902001556 92 0 0.0 0.0 0.00 0.00 0.00 45 1015.4
20260902000043 94 0 0.0 0.9 0.00 0.00 0.00 44 1015.5
20260901234544 94 0 0.0 1.7 0.00 0.00 0.00 42 1015.5
20260901233059 95 0 0.0 2.6 0.00 0.00 0.00 41 1015.7
20260901231544 97 0 0.0 2.6 0.00 0.00 0.00 39 1015.7
20260901230125 98 0 0.0 0.9 0.00 0.00 0.00 37 1015.8
20260901224552 100 139 0.9 2.6 0.00 0.00 0.00 36 1015.7
20260901223054 101 0 0.0 3.5 0.00 0.00 0.00 36 1015.7
20260901221554 101 0 0.0 2.6 0.00 0.00 0.00 35 1015.6
20260901220047 99 146 0.0 4.3 0.00 0.00 0.00 37 1015.8
20260901214550 103 245 0.9 4.3 0.00 0.00 0.00 34 1015.8
20260901213110 103 0 0.0 3.5 0.00 0.00 0.00 32 1015.8
20260901211550 103 153 0.9 5.2 0.00 0.00 0.00 33 1015.8
20260901210045 103 0 0.0 5.2 0.00 0.00 0.00 34 1016.1
20260901204552 101 0 0.0 3.5 0.00 0.00 0.00 36 1016.2
20260901203115 100 321 0.0 0.9 0.00 0.00 0.00 38 1016.5
20260901201550 101 0 0.0 1.7 0.00 0.00 0.00 36 1016.7
20260901200053 101 0 0.0 0.0 0.00 0.00 0.00 37 1016.8
20260901194602 103 0 0.9 5.2 0.00 0.00 0.00 35 1017.1
20260901193044 102 0 0.9 3.5 0.00 0.00 0.00 37 1017.2